Time,TemperatureF,DewpointF,PressureIn,WindDirection,WindDirectionDegrees,WindSpeedMPH,WindSpeedGustMPH,Humidity,HourlyPrecipIn,Conditions,Clouds,dailyrainin,SoftwareType,DateUTC
2013-04-06 00:27:00,55.2,54.6,29.94,ESE,112,0.0,-999.0,98,-99.99,,,0.00,Acu-Link.com,2013-04-06 05:27:00,
2013-04-06 00:42:00,55.4,54.8,29.94,ESE,112,2.7,-999.0,98,-99.99,,,0.00,Acu-Link.com,2013-04-06 05:42:00,
2013-04-06 00:57:00,55.6,55.0,29.94,SSE,157,2.7,-999.0,98,-99.99,,,0.00,Acu-Link.com,2013-04-06 05:57:00,
2013-04-06 01:12:00,55.6,55.0,29.94,SE,135,2.2,-999.0,98,-99.99,,,0.00,Acu-Link.com,2013-04-06 06:12:00,
2013-04-06 01:27:00,55.4,54.8,29.93,ESE,112,2.2,-999.0,98,-99.99,,,0.00,Acu-Link.com,2013-04-06 06:27:00,
2013-04-06 01:42:00,54.9,54.3,29.93,WSW,247,0.0,-999.0,98,-99.99,,,0.00,Acu-Link.com,2013-04-06 06:42:00,
2013-04-06 01:57:00,54.5,53.9,29.93,SE,135,0.0,-999.0,98,-99.99,,,0.00,Acu-Link.com,2013-04-06 06:57:00,
2013-04-06 02:12:00,54.0,53.4,29.93,SSE,157,0.0,-999.0,98,-99.99,,,0.00,Acu-Link.com,2013-04-06 07:12:00,
2013-04-06 02:27:00,53.4,52.8,29.92,SSE,157,2.7,-999.0,98,-99.99,,,0.00,Acu-Link.com,2013-04-06 07:27:00,
2013-04-06 02:43:00,53.6,53.0,29.91,SE,135,2.2,-999.0,98,-99.99,,,0.00,Acu-Link.com,2013-04-06 07:43:00,
2013-04-06 02:58:00,53.4,52.8,29.91,ESE,112,1.7,-999.0,98,-99.99,,,0.00,Acu-Link.com,2013-04-06 07:58:00,
2013-04-06 03:15:00,53.2,52.6,29.91,SSE,157,0.0,-999.0,98,-99.99,,,0.00,Acu-Link.com,2013-04-06 08:15:00,
2013-04-06 03:30:00,53.1,52.5,29.89,SSE,157,1.7,-999.0,98,-99.99,,,0.00,Acu-Link.com,2013-04-06 08:30:00,
2013-04-06 03:45:00,52.5,52.0,29.89,South,180,1.7,-999.0,98,-99.99,,,0.00,Acu-Link.com,2013-04-06 08:45:00,
2013-04-06 04:00:00,52.3,51.8,29.89,ESE,112,1.7,-999.0,98,-99.99,,,0.00,Acu-Link.com,2013-04-06 09:00:00,
2013-04-06 04:15:00,52.0,51.5,29.88,NNW,337,2.7,-999.0,98,-99.99,,,0.00,Acu-Link.com,2013-04-06 09:15:00,
2013-04-06 04:30:00,52.2,51.7,29.87,SSE,157,2.7,-999.0,98,-99.99,,,0.00,Acu-Link.com,2013-04-06 09:30:00,
2013-04-06 04:45:00,52.3,51.8,29.88,ESE,112,3.7,-999.0,98,-99.99,,,0.00,Acu-Link.com,2013-04-06 09:45:00,
2013-04-06 05:01:00,52.2,51.7,29.87,ESE,112,2.2,-999.0,98,-99.99,,,0.00,Acu-Link.com,2013-04-06 10:01:00,
2013-04-06 05:16:00,51.6,51.1,29.88,ESE,112,0.0,-999.0,98,-99.99,,,0.00,Acu-Link.com,2013-04-06 10:16:00,
2013-04-06 05:46:00,51.1,50.6,29.89,SW,225,0.0,-999.0,98,-99.99,,,0.00,Acu-Link.com,2013-04-06 10:46:00,
2013-04-06 06:16:00,50.7,50.2,29.89,ESE,112,2.7,-999.0,98,-99.99,,,0.00,Acu-Link.com,2013-04-06 11:16:00,
2013-04-06 06:46:00,50.5,50.0,29.89,SW,225,3.2,-999.0,98,-99.99,,,0.00,Acu-Link.com,2013-04-06 11:46:00,
2013-04-06 07:02:00,50.4,49.9,29.88,SSE,157,2.2,-999.0,98,-99.99,,,0.00,Acu-Link.com,2013-04-06 12:02:00,
2013-04-06 07:17:00,51.1,50.6,29.89,SSE,157,2.7,-999.0,98,-99.99,,,0.00,Acu-Link.com,2013-04-06 12:17:00,
2013-04-06 07:32:00,51.8,51.3,29.90,NNW,337,4.2,-999.0,98,-99.99,,,0.00,Acu-Link.com,2013-04-06 12:32:00,
2013-04-06 07:47:00,52.5,52.0,29.90,South,180,4.2,-999.0,98,-99.99,,,0.00,Acu-Link.com,2013-04-06 12:47:00,
2013-04-06 08:17:00,53.6,53.0,29.90,ESE,112,4.7,-999.0,98,-99.99,,,0.00,Acu-Link.com,2013-04-06 13:17:00,
2013-04-06 08:32:00,55.9,55.3,29.90,ENE,67,4.2,-999.0,98,-99.99,,,0.00,Acu-Link.com,2013-04-06 13:32:00,
2013-04-06 08:47:00,57.9,57.3,29.90,SSE,157,1.7,-999.0,98,-99.99,,,0.00,Acu-Link.com,2013-04-06 13:47:00,
2013-04-06 09:03:00,58.3,57.7,29.90,ESE,112,4.2,-999.0,98,-99.99,,,0.00,Acu-Link.com,2013-04-06 14:03:00,
2013-04-06 09:18:00,59.9,59.3,29.90,SSE,157,4.7,-999.0,98,-99.99,,,0.00,Acu-Link.com,2013-04-06 14:18:00,
2013-04-06 09:33:00,60.1,59.5,29.90,SW,225,4.2,-999.0,98,-99.99,,,0.00,Acu-Link.com,2013-04-06 14:33:00,
2013-04-06 09:48:00,61.7,61.1,29.89,NNE,22,5.8,-999.0,98,-99.99,,,0.00,Acu-Link.com,2013-04-06 14:48:00,
2013-04-06 10:03:00,61.5,60.9,29.89,South,180,2.2,-999.0,98,-99.99,,,0.00,Acu-Link.com,2013-04-06 15:03:00,
2013-04-06 10:18:00,64.6,64.0,29.89,SE,135,2.7,-999.0,98,-99.99,,,0.00,Acu-Link.com,2013-04-06 15:18:00,
2013-04-06 10:33:00,65.7,65.1,29.89,South,180,3.2,-999.0,98,-99.99,,,0.00,Acu-Link.com,2013-04-06 15:33:00,
2013-04-06 10:48:00,66.2,65.6,29.89,ESE,112,4.7,-999.0,98,-99.99,,,0.00,Acu-Link.com,2013-04-06 15:48:00,
2013-04-06 11:18:00,68.0,67.4,29.88,East,90,4.7,-999.0,98,-99.99,,,0.00,Acu-Link.com,2013-04-06 16:18:00,
2013-04-06 12:19:00,72.9,72.3,29.86,East,90,4.7,-999.0,98,-99.99,,,0.00,Acu-Link.com,2013-04-06 17:19:00,
2013-04-06 12:34:00,74.1,59.3,29.86,North,0,7.3,-999.0,60,-99.99,,,0.00,Acu-Link.com,2013-04-06 17:34:00,
2013-04-06 12:49:00,73.8,57.1,29.86,West,270,4.2,-999.0,56,-99.99,,,0.00,Acu-Link.com,2013-04-06 17:49:00,
2013-04-06 13:04:00,74.8,57.5,29.84,South,180,6.8,-999.0,55,-99.99,,,0.00,Acu-Link.com,2013-04-06 18:04:00,
2013-04-06 13:34:00,76.1,56.1,29.84,SW,225,5.3,-999.0,50,-99.99,,,0.00,Acu-Link.com,2013-04-06 18:34:00,
2013-04-06 13:50:00,77.0,57.5,29.83,ESE,112,2.7,-999.0,51,-99.99,,,0.00,Acu-Link.com,2013-04-06 18:50:00,
2013-04-06 14:05:00,78.4,56.5,29.82,East,90,2.7,-999.0,47,-99.99,,,0.00,Acu-Link.com,2013-04-06 19:05:00,
2013-04-06 14:50:00,79.2,57.2,29.80,East,90,5.3,-999.0,47,-99.99,,,0.00,Acu-Link.com,2013-04-06 19:50:00,
2013-04-06 15:05:00,78.4,58.2,29.79,North,0,4.7,-999.0,50,-99.99,,,0.00,Acu-Link.com,2013-04-06 20:05:00,
2013-04-06 15:20:00,78.6,57.8,29.78,SSW,202,5.8,-999.0,49,-99.99,,,0.00,Acu-Link.com,2013-04-06 20:20:00,
2013-04-06 15:35:00,80.2,58.7,29.77,SSE,157,5.8,-999.0,48,-99.99,,,0.00,Acu-Link.com,2013-04-06 20:35:00,
2013-04-06 15:50:00,80.4,57.7,29.76,East,90,5.3,-999.0,46,-99.99,,,0.00,Acu-Link.com,2013-04-06 20:50:00,
2013-04-06 16:06:00,81.1,58.3,29.76,SSE,157,5.3,-999.0,46,-99.99,,,0.00,Acu-Link.com,2013-04-06 21:06:00,
2013-04-06 16:21:00,80.6,57.9,29.75,NE,45,4.7,-999.0,46,-99.99,,,0.00,Acu-Link.com,2013-04-06 21:21:00,
2013-04-06 17:21:00,80.6,57.9,29.73,SSE,157,4.7,-999.0,46,-99.99,,,0.00,Acu-Link.com,2013-04-06 22:21:00,
2013-04-06 17:51:00,80.4,57.7,29.74,South,180,5.8,-999.0,46,-99.99,,,0.00,Acu-Link.com,2013-04-06 22:51:00,
2013-04-06 18:06:00,79.9,56.6,29.73,SSE,157,2.2,-999.0,45,-99.99,,,0.00,Acu-Link.com,2013-04-06 23:06:00,
2013-04-06 18:22:00,78.8,57.4,29.72,ESE,112,2.7,-999.0,48,-99.99,,,0.00,Acu-Link.com,2013-04-06 23:22:00,
2013-04-06 18:37:00,78.4,56.5,29.72,SSE,157,2.7,-999.0,47,-99.99,,,0.00,Acu-Link.com,2013-04-06 23:37:00,
2013-04-06 18:52:00,77.4,56.7,29.72,ESE,112,4.2,-999.0,49,-99.99,,,0.00,Acu-Link.com,2013-04-06 23:52:00,
2013-04-06 19:07:00,76.5,57.0,29.72,NW,315,0.0,-999.0,51,-99.99,,,0.00,Acu-Link.com,2013-04-07 00:07:00,
2013-04-06 19:22:00,75.9,57.5,29.72,SSE,157,1.1,-999.0,53,-99.99,,,0.00,Acu-Link.com,2013-04-07 00:22:00,
2013-04-06 19:37:00,75.0,57.7,29.72,ESE,112,0.0,-999.0,55,-99.99,,,0.00,Acu-Link.com,2013-04-07 00:37:00,
2013-04-06 19:52:00,74.1,58.8,29.73,SW,225,1.7,-999.0,59,-99.99,,,0.00,Acu-Link.com,2013-04-07 00:52:00,
2013-04-06 20:07:00,72.5,64.5,29.73,SE,135,0.0,-999.0,76,-99.99,,,0.00,Acu-Link.com,2013-04-07 01:07:00,
2013-04-06 20:22:00,71.4,70.8,29.73,ESE,112,3.2,-999.0,98,-99.99,,,0.00,Acu-Link.com,2013-04-07 01:22:00,
2013-04-06 20:37:00,71.1,70.5,29.73,SE,135,6.3,-999.0,98,-99.99,,,0.00,Acu-Link.com,2013-04-07 01:37:00,
2013-04-06 20:53:00,70.5,69.9,29.73,SE,135,4.7,-999.0,98,-99.99,,,0.00,Acu-Link.com,2013-04-07 01:53:00,
2013-04-06 21:08:00,68.7,68.1,29.75,SSE,157,3.2,-999.0,98,-99.99,,,0.00,Acu-Link.com,2013-04-07 02:08:00,
2013-04-06 21:23:00,69.3,68.7,29.75,SE,135,2.7,-999.0,98,-99.99,,,0.00,Acu-Link.com,2013-04-07 02:23:00,
2013-04-06 21:38:00,68.4,67.8,29.75,ESE,112,4.7,-999.0,98,-99.99,,,0.00,Acu-Link.com,2013-04-07 02:38:00,
2013-04-06 21:53:00,68.0,67.4,29.76,SSE,157,6.3,-999.0,98,-99.99,,,0.00,Acu-Link.com,2013-04-07 02:53:00,
2013-04-06 22:08:00,67.5,66.9,29.76,ESE,112,5.8,-999.0,98,-99.99,,,0.00,Acu-Link.com,2013-04-07 03:08:00,
2013-04-06 22:23:00,67.5,66.9,29.76,SE,135,5.3,-999.0,98,-99.99,,,0.00,Acu-Link.com,2013-04-07 03:23:00,
2013-04-06 23:39:00,64.4,63.8,29.76,SE,135,3.2,-999.0,98,-99.99,,,0.00,Acu-Link.com,2013-04-07 04:39:00,
2013-04-06 23:54:00,64.0,63.4,29.76,SSE,157,2.2,-999.0,98,-99.99,,,0.00,Acu-Link.com,2013-04-07 04:54:00,